Location: Malvern Link
(52.1333°N, 2.3000°W)
Time: 18:37:10
(UTC+00:00)

NOSS 2-2 (C) - Pass Details

Date: 18 September 2020
Orbit: 468 x 1740 km, 63.3° (Epoch: 19 October)

Event Time Altitude Azimuth Distance (km) Brightness Sun altitude
Rises 20:04:36 0° 219° (SW) 2,499 6.9 -16.9°
Reaches altitude 10° 20:06:37 10° 218° (SW) 1,637 5.9 -17.2°
Maximum altitude 20:10:07 75° 134° (SE) 528 3.0 -17.6°
Drops below altitude 10° 20:14:14 10° 48° (NE) 1,904 5.9 -18.2°
Enters shadow 20:15:46 - 47° (NE) 2,556 6.5 -18.4°
